When you browse on this site, cookies collect data to enhance your experience and personalize the content and advertising you see.
Visit our Privacy Policy to learn more. By continuing to use the site, you agree to this use of cookies and data.
  • In Sweden
  • List of Countries
  • For 7 days
  • Water Temperature
  • Satellite Maps
  • Weather Map
  • Weather Widgets
  • user-avatar
    Login

    Hourly Weather Bozkır

    Today, 13 December, Thursday

    Time Temperature Precipitation Wind Pressure Humidity
    00:00 -1°C° 0 mm 1 mps 661 mmHg 85%
    01:00 -1°C° 0 mm 1 mps 662 mmHg 84%
    02:00 -2°C° 0 mm 1 mps 662 mmHg 83%
    03:00 -2°C° 0 mm 1 mps 662 mmHg 82%
    04:00 -2°C° 0 mm 1 mps 662 mmHg 82%
    05:00 -2°C° 0 mm 1 mps 663 mmHg 81%
    06:00 -2°C° 0 mm 1 mps 663 mmHg 81%
    07:00 -3°C° 0 mm 2 mps 663 mmHg 82%
    08:00 -3°C° 0 mm 2 mps 664 mmHg 82%
    09:00 0°C° 0 mm 1 mps 664 mmHg 77%
    10:00 +1°C° 0 mm 1 mps 665 mmHg 72%
    11:00 +2°C° 0 mm 1 mps 665 mmHg 67%
    12:00 +3°C° 0 mm 1 mps 665 mmHg 64%
    13:00 +4°C° 0 mm 1 mps 665 mmHg 61%
    14:00 +4°C° 0 mm 1 mps 665 mmHg 58%
    15:00 +3°C° 0 mm 1 mps 665 mmHg 59%
    16:00 +2°C° 0 mm 1 mps 664 mmHg 59%
    17:00 +1°C° 0 mm 1 mps 664 mmHg 60%
    18:00 +1°C° 0 mm 1 mps 664 mmHg 58%
    19:00 +1°C° 0 mm 1 mps 664 mmHg 56%
    20:00 +1°C° 0 mm 1 mps 665 mmHg 55%
    21:00 -1°C° 0 mm 2 mps 665 mmHg 56%
    22:00 +1°C° 0 mm 2 mps 665 mmHg 57%
    23:00 +1°C° 0 mm 2 mps 665 mmHg 58%

    Tomorrow, 14 December, Friday

    Time Temperature Precipitation Wind Pressure Humidity
    00:00 +1°C° 0.2 mm 2 mps 665 mmHg 62%
    01:00 +1°C° 0.2 mm 2 mps 665 mmHg 67%
    02:00 +1°C° 0.2 mm 2 mps 665 mmHg 71%
    03:00 +1°C° 0.6 mm 2 mps 665 mmHg 75%
    04:00 +2°C° 0.6 mm 2 mps 664 mmHg 79%
    05:00 +2°C° 0.6 mm 2 mps 664 mmHg 83%
    06:00 +2°C° 0.3 mm 2 mps 665 mmHg 84%
    07:00 +3°C° 0.3 mm 2 mps 665 mmHg 86%
    08:00 +3°C° 0.3 mm 2 mps 665 mmHg 87%
    09:00 +4°C° 0 mm 2 mps 665 mmHg 86%
    10:00 +6°C° 0 mm 2 mps 666 mmHg 85%
    11:00 +7°C° 0 mm 2 mps 666 mmHg 84%
    12:00 +7°C° 0 mm 2 mps 666 mmHg 83%
    13:00 +8°C° 0 mm 2 mps 666 mmHg 82%
    14:00 +8°C° 0 mm 2 mps 666 mmHg 80%
    15:00 +8°C° 0 mm 1 mps 666 mmHg 84%
    16:00 +7°C° 0 mm 1 mps 666 mmHg 87%
    17:00 +6°C° 0 mm 1 mps 665 mmHg 90%
    18:00 +5°C° 0 mm 1 mps 665 mmHg 90%
    19:00 +5°C° 0 mm 1 mps 666 mmHg 90%
    20:00 +4°C° 0 mm 1 mps 666 mmHg 90%
    21:00 +4°C° 0 mm 1 mps 666 mmHg 89%
    22:00 +4°C° 0 mm 1 mps 666 mmHg 89%
    23:00 +4°C° 0 mm 1 mps 666 mmHg 88%

    Day after tomorrow, 15 December, Saturday

    Time Temperature Precipitation Wind Pressure Humidity
    00:00 +4°C° 0 mm 1 mps 666 mmHg 87%
    01:00 +4°C° 0 mm 1 mps 666 mmHg 86%
    02:00 +3°C° 0 mm 1 mps 665 mmHg 85%
    03:00 +4°C° 0 mm 1 mps 665 mmHg 85%
    04:00 +4°C° 0 mm 1 mps 665 mmHg 85%
    05:00 +4°C° 0 mm 1 mps 665 mmHg 84%
    06:00 +4°C° 0 mm 1 mps 665 mmHg 84%
    07:00 +5°C° 0 mm 1 mps 666 mmHg 84%
    08:00 +5°C° 0 mm 1 mps 666 mmHg 83%
    09:00 +7°C° 0 mm 1 mps 666 mmHg 81%
    10:00 +8°C° 0 mm 1 mps 666 mmHg 79%
    11:00 +9°C° 0 mm 1 mps 667 mmHg 77%
    12:00 +9°C° 0 mm 1 mps 666 mmHg 77%
    13:00 +10°C° 0 mm 1 mps 666 mmHg 76%
    14:00 +10°C° 0 mm 1 mps 665 mmHg 76%
    15:00 +9°C° 0 mm 1 mps 665 mmHg 79%
    16:00 +8°C° 0 mm 1 mps 664 mmHg 82%
    17:00 +6°C° 0 mm 1 mps 664 mmHg 85%
    18:00 +6°C° 0 mm 1 mps 664 mmHg 86%
    19:00 +5°C° 0 mm 1 mps 664 mmHg 87%
    20:00 +4°C° 0 mm 2 mps 664 mmHg 87%
    21:00 +4°C° 0 mm 2 mps 664 mmHg 86%
    22:00 +5°C° 0 mm 1 mps 663 mmHg 85%
    23:00 +4°C° 0 mm 1 mps 663 mmHg 83%

    16 December, Sunday

    Time Temperature Precipitation Wind Pressure Humidity
    00:00 +3°C° 0 mm 2 mps 663 mmHg 82%
    01:00 +3°C° 0 mm 2 mps 662 mmHg 80%
    02:00 +3°C° 0 mm 2 mps 662 mmHg 78%
    03:00 +3°C° 0 mm 2 mps 662 mmHg 78%
    04:00 +3°C° 0 mm 2 mps 661 mmHg 78%
    05:00 +2°C° 0 mm 2 mps 661 mmHg 78%
    06:00 +3°C° 0 mm 2 mps 661 mmHg 78%
    07:00 +3°C° 0 mm 2 mps 661 mmHg 78%
    08:00 +4°C° 0 mm 2 mps 661 mmHg 77%
    09:00 +5°C° 0 mm 2 mps 662 mmHg 75%
    10:00 +6°C° 0 mm 2 mps 662 mmHg 73%
    11:00 +8°C° 0 mm 2 mps 662 mmHg 71%
    12:00 +8°C° 0.1 mm 2 mps 661 mmHg 72%
    13:00 +8°C° 0.1 mm 2 mps 661 mmHg 72%
    14:00 +8°C° 0.1 mm 2 mps 660 mmHg 73%
    15:00 +7°C° 0.2 mm 2 mps 660 mmHg 77%
    16:00 +7°C° 0.2 mm 2 mps 660 mmHg 80%
    17:00 +6°C° 0.2 mm 2 mps 660 mmHg 83%
    18:00 +6°C° 0.1 mm 2 mps 660 mmHg 84%
    19:00 +5°C° 0.1 mm 2 mps 660 mmHg 86%
    20:00 +5°C° 0.1 mm 2 mps 660 mmHg 87%
    21:00 +5°C° 0.2 mm 2 mps 660 mmHg 88%
    22:00 +5°C° 0.2 mm 2 mps 660 mmHg 89%
    23:00 +6°C° 0.2 mm 1 mps 660 mmHg 89%

    17 December, Monday

    Time Temperature Precipitation Wind Pressure Humidity
    00:00 +5°C° 0.2 mm 1 mps 660 mmHg 89%
    01:00 +5°C° 0.2 mm 1 mps 660 mmHg 90%
    02:00 +5°C° 0.2 mm 1 mps 660 mmHg 90%
    03:00 +5°C° 0.2 mm 1 mps 660 mmHg 90%
    04:00 +5°C° 0.2 mm 1 mps 660 mmHg 90%
    05:00 +5°C° 0.2 mm 1 mps 660 mmHg 90%
    06:00 +5°C° 0.2 mm 1 mps 660 mmHg 89%
    07:00 +5°C° 0.2 mm 1 mps 660 mmHg 88%
    08:00 +6°C° 0.2 mm 1 mps 660 mmHg 87%
    09:00 +7°C° 0.1 mm 1 mps 661 mmHg 83%
    10:00 +8°C° 0.1 mm 1 mps 661 mmHg 79%
    11:00 +9°C° 0.1 mm 1 mps 661 mmHg 75%
    12:00 +9°C° 0 mm 1 mps 661 mmHg 73%
    13:00 +10°C° 0 mm 1 mps 661 mmHg 71%
    14:00 +10°C° 0 mm 1 mps 661 mmHg 70%
    15:00 +9°C° 0 mm 1 mps 661 mmHg 73%
    16:00 +8°C° 0 mm 1 mps 661 mmHg 77%
    17:00 +7°C° 0 mm 1 mps 661 mmHg 80%
    18:00 +7°C° 0 mm 1 mps 661 mmHg 82%
    19:00 +7°C° 0 mm 1 mps 661 mmHg 83%
    20:00 +6°C° 0 mm 1 mps 662 mmHg 85%
    21:00 +6°C° 0 mm 1 mps 662 mmHg 85%
    22:00 +6°C° 0 mm 1 mps 662 mmHg 86%
    23:00 +5°C° 0 mm 1 mps 662 mmHg 86%

    18 December, Tuesday

    Time Temperature Precipitation Wind Pressure Humidity
    00:00 +5°C° 0 mm 1 mps 662 mmHg 87%
    01:00 +5°C° 0 mm 1 mps 662 mmHg 87%
    02:00 +4°C° 0 mm 1 mps 661 mmHg 87%
    03:00 +4°C° 0 mm 1 mps 661 mmHg 87%
    04:00 +4°C° 0 mm 1 mps 661 mmHg 87%
    05:00 +4°C° 0 mm 1 mps 661 mmHg 87%
    06:00 +4°C° 0 mm 1 mps 662 mmHg 86%
    07:00 +5°C° 0 mm 1 mps 662 mmHg 85%
    08:00 +5°C° 0 mm 1 mps 662 mmHg 84%
    09:00 +6°C° 0 mm 1 mps 663 mmHg 79%
    10:00 +7°C° 0 mm 1 mps 663 mmHg 74%
    11:00 +8°C° 0 mm 2 mps 663 mmHg 69%
    12:00 +8°C° 0 mm 2 mps 663 mmHg 68%
    13:00 +8°C° 0 mm 2 mps 662 mmHg 66%
    14:00 +9°C° 0 mm 2 mps 662 mmHg 65%
    15:00 +8°C° 0 mm 2 mps 662 mmHg 70%
    16:00 +7°C° 0 mm 2 mps 662 mmHg 74%
    17:00 +6°C° 0 mm 2 mps 661 mmHg 79%
    18:00 +5°C° 0.1 mm 2 mps 661 mmHg 81%
    19:00 +5°C° 0.1 mm 2 mps 661 mmHg 82%
    20:00 +5°C° 0.1 mm 2 mps 661 mmHg 84%
    21:00 +4°C° 0.5 mm 3 mps 661 mmHg 85%
    22:00 +4°C° 0.5 mm 3 mps 661 mmHg 87%
    23:00 +4°C° 0.5 mm 3 mps 661 mmHg 88%
    Show more